Total_Precipitation_Accumulation
0.74 0.99 1.36 1.31 1.12 1.11 1.17 1.16 1.02 0.93 0.87 0.89 0.87 0.80 0.73 0.65 0.59 0.56 0.55 0.54 0.54 0.61 0.69 0.78 0.81 0.78 0.85 0.95 1.06 1.13 1.16 1.25 1.39 1.63 1.78 1.78 1.82 1.86 2.00 2.07 2.02 1.57 1.51
0.46 0.74 1.11 1.15 1.00 0.99 1.01 1.02 0.97 0.87 0.83 0.82 0.87 0.88 0.81 0.74 0.64 0.57 0.55 0.56 0.61 0.66 0.67 0.68 0.76 0.73 0.77 0.87 0.99 1.05 1.11 1.28 1.70 2.04 2.20 2.08 2.06 2.07 2.13 2.05 2.01 1.60 1.45
0.36 0.51 0.75 1.01 0.97 0.94 0.87 0.87 0.86 0.81 0.78 0.77 0.79 0.84 0.80 0.73 0.63 0.57 0.57 0.60 0.66 0.66 0.62 0.71 0.77 0.73 0.77 0.87 0.96 0.98 1.15 1.45 2.06 2.66 2.79 2.30 1.90 2.10 2.15 2.08 1.84 1.46 1.29
0.30 0.41 0.56 0.84 0.86 0.87 0.84 0.84 0.83 0.77 0.68 0.68 0.69 0.69 0.66 0.67 0.61 0.56 0.57 0.60 0.63 0.61 0.63 0.74 0.78 0.78 0.76 0.80 0.90 1.11 1.35 1.58 2.12 2.59 2.61 1.89 1.50 1.60 1.84 1.65 1.46 1.26 1.07
0.32 0.37 0.56 0.72 0.72 0.76 0.74 0.73 0.77 0.75 0.69 0.64 0.61 0.65 0.64 0.61 0.59 0.57 0.60 0.61 0.65 0.65 0.64 0.68 0.79 0.84 0.82 0.80 0.92 1.20 1.53 1.85 2.16 2.29 1.89 2.07 1.95 1.62 1.52 1.37 1.32 1.09 0.87
0.30 0.28 0.44 0.60 0.61 0.71 0.68 0.64 0.67 0.67 0.67 0.64 0.62 0.65 0.70 0.72 0.72 0.64 0.58 0.62 0.68 0.72 0.72 0.74 0.84 0.89 0.82 0.81 0.94 1.26 1.58 1.98 2.03 1.47 1.15 1.50 1.50 1.43 1.38 1.33 1.20 1.02 0.84
0.31 0.26 0.35 0.54 0.53 0.60 0.62 0.60 0.61 0.62 0.65 0.61 0.62 0.62 0.69 0.75 0.73 0.68 0.66 0.68 0.69 0.73 0.74 0.79 0.84 0.87 0.89 0.91 0.98 1.24 1.65 1.96 1.74 1.15 0.96 1.21 1.16 1.21 1.31 1.31 1.23 1.07 0.88
0.39 0.29 0.35 0.55 0.63 0.62 0.61 0.60 0.60 0.60 0.60 0.59 0.59 0.60 0.64 0.70 0.72 0.73 0.75 0.77 0.71 0.75 0.79 0.79 0.81 0.80 0.86 0.97 1.09 1.21 1.59 1.62 1.26 1.04 0.94 1.02 0.84 1.12 1.27 1.19 1.13 1.02 0.90
0.69 0.56 0.48 0.53 0.61 0.63 0.69 0.70 0.64 0.63 0.62 0.60 0.62 0.64 0.63 0.65 0.68 0.69 0.81 0.84 0.79 0.80 0.83 0.86 0.84 0.85 0.90 1.02 1.12 1.26 1.56 1.69 1.42 1.27 1.01 0.96 0.79 1.12 1.36 1.16 1.01 0.90 0.91
1.29 1.09 0.82 0.63 0.69 0.66 0.72 0.74 0.71 0.59 0.58 0.62 0.67 0.67 0.70 0.77 0.83 0.92 0.91 0.88 0.91 0.99 1.03 1.06 1.02 0.97 1.08 1.18 1.26 1.40 1.57 1.53 1.38 1.56 1.30 0.90 0.91 1.24 1.46 1.48 1.27 1.06 0.99
1.64 1.46 1.31 1.06 0.81 0.87 0.85 0.76 0.86 0.77 0.76 0.87 1.03 1.02 1.09 1.40 1.36 1.46 1.20 1.12 1.22 1.41 1.46 1.50 1.49 1.41 1.36 1.32 1.48 1.66 1.54 1.45 1.67 1.84 1.50 1.08 1.20 1.62 1.77 1.82 1.63 1.46 1.35
1.66 1.48 1.47 1.40 1.11 1.02 0.98 1.21 1.52 1.34 1.34 1.40 1.63 1.52 1.81 1.93 1.81 1.35 1.42 1.58 1.71 2.06 2.18 2.20 2.24 2.03 1.75 1.62 1.77 1.80 1.56 1.59 1.77 1.62 1.37 1.22 1.38 1.79 2.08 2.11 1.91 1.68 1.60
1.86 1.73 1.45 1.57 1.43 1.39 1.54 1.62 1.77 1.85 1.84 1.80 1.89 1.93 2.17 1.99 1.71 1.62 1.93 2.28 2.46 2.63 2.79 2.83 2.75 2.30 2.26 2.42 2.41 2.19 2.07 1.92 1.96 1.69 1.37 1.43 1.58 1.91 2.22 2.29 2.10 1.93 1.76
2.15 2.03 1.90 1.88 1.88 1.86 1.90 1.82 1.71 1.55 1.57 1.69 1.85 1.88 2.09 2.19 2.21 2.19 2.34 2.46 2.67 3.01 3.37 3.30 3.25 3.02 3.04 2.87 2.64 2.61 2.43 2.12 2.26 2.33 1.87 1.72 1.82 2.18 2.39 2.38 2.22 2.09 2.07
2.84 2.68 2.67 2.73 2.52 2.29 2.22 1.89 1.55 1.45 1.36 1.43 1.55 1.65 1.71 2.03 2.29 2.34 2.20 2.22 2.22 2.44 2.85 3.36 3.31 3.48 3.47 3.15 2.70 2.51 2.55 2.42 2.37 2.32 1.96 2.04 2.26 2.31 2.35 2.32 2.27 2.22 2.24
3.82 3.64 3.44 3.48 3.02 2.65 2.40 2.02 1.76 1.51 1.51 1.43 1.35 1.38 1.59 1.82 2.10 2.07 2.04 2.22 2.28 2.22 2.38 2.80 2.99 3.33 3.33 2.99 2.50 2.29 2.29 2.34 2.21 2.20 1.95 1.99 2.14 2.03 2.06 2.32 2.53 2.58 2.51
4.92 4.53 3.94 3.66 3.32 3.02 2.74 2.25 1.87 1.69 1.44 1.43 1.43 1.36 1.43 1.56 1.79 1.79 1.87 1.87 1.95 1.90 1.98 2.16 2.42 2.71 2.69 2.55 2.44 2.37 2.29 2.19 2.02 2.01 2.06 2.00 1.76 1.84 1.95 2.09 2.32 2.46 2.62
5.72 5.13 4.40 3.70 3.71 3.53 3.21 2.55 2.06 1.77 1.62 1.53 1.46 1.34 1.26 1.29 1.29 1.40 1.44 1.42 1.44 1.33 1.47 1.77 1.87 2.11 2.35 2.44 2.53 2.33 2.23 2.28 2.06 2.01 1.98 1.99 1.97 1.69 1.96 2.03 2.07 2.13 2.43
5.89 5.69 5.05 4.85 4.60 3.93 3.18 2.57 2.15 1.85 1.71 1.53 1.44 1.35 1.29 1.21 1.16 1.23 1.31 1.40 1.17 1.14 1.21 1.15 1.51 1.72 1.97 2.10 1.85 1.96 1.86 1.92 1.83 1.61 1.62 1.51 1.69 1.68 1.81 1.80 1.90 1.89 2.13
4.83 4.73 4.67 4.77 4.30 3.68 3.04 2.53 2.22 1.95 1.66 1.47 1.37 1.39 1.31 1.25 1.22 1.33 1.18 1.20 1.07 1.21 1.36 1.46 1.70 1.64 1.60 1.70 1.47 1.67 1.57 1.44 1.47 1.41 1.29 1.30 1.36 1.27 1.49 1.67 1.77 1.55 1.78
3.25 3.36 3.67 3.89 3.60 3.10 2.67 2.17 1.95 1.86 1.68 1.49 1.36 1.26 1.31 1.25 1.37 1.46 1.21 1.45 1.30 1.26 1.34 1.38 1.50 1.50 1.36 1.33 1.67 1.85 1.49 1.15 1.15 1.04 1.02 1.18 1.25 1.29 1.54 1.79 1.83 1.77 1.56
2.34 2.65 3.03 3.27 3.11 2.58 2.33 2.11 1.96 1.87 1.74 1.68 1.54 1.46 1.31 1.28 1.33 1.24 1.45 1.29 1.32 1.41 1.45 1.51 1.60 1.59 1.42 1.35 1.65 1.97 1.72 1.67 1.50 0.86 0.96 1.10 1.20 1.42 1.49 1.50 1.65 1.86 1.60
2.05 2.21 2.26 2.52 2.72 2.46 2.32 2.23 2.12 2.01 1.82 1.85 1.75 1.59 1.29 1.19 1.23 1.26 1.27 1.28 1.46 1.28 1.50 1.68 1.62 1.67 1.64 1.49 1.50 1.77 1.81 1.77 1.54 1.19 0.96 0.96 1.14 1.45 1.49 1.55 1.46 1.61 1.73
1.43 1.72 1.98 2.22 2.40 2.34 2.21 2.00 1.84 1.65 1.54 1.54 1.56 1.57 1.45 1.33 1.17 1.17 1.18 1.33 1.48 1.29 1.59 1.33 1.36 1.59 1.70 1.54 1.48 1.35 1.37 1.51 1.63 1.56 1.30 1.07 1.08 1.24 1.33 1.25 1.28 1.48 1.60
0.99 1.38 1.81 2.16 2.40 2.29 2.00 1.83 1.82 1.71 1.66 1.59 1.52 1.69 1.56 1.48 1.28 1.12 1.19 1.31 1.37 1.29 1.37 1.40 1.64 1.56 1.51 1.49 1.52 1.53 1.57 1.47 1.26 1.34 1.43 1.40 1.30 1.04 0.97 1.02 1.14 1.32 1.37
0.81 1.06 1.38 1.72 1.97 1.99 1.84 1.75 1.80 1.82 1.78 1.64 1.45 1.44 1.35 1.36 1.31 1.23 1.30 1.35 1.30 1.24 1.29 1.32 1.45 1.48 1.55 1.61 1.48 1.37 1.47 1.39 1.28 1.32 1.18 1.17 1.26 0.97 0.85 0.87 0.98 1.17 1.26